Location: Bergnershof
(48.9468°N, 10.9431°E)
Time: 21:47:57
(UTC+00:00)

Ariane Rocket - Pass Details

Date: 03 March 2021
Orbit: 759 x 771 km, 98.7° (Epoch: 13 April)

Event Time Altitude Azimuth Distance (km) Brightness Sun altitude
Exits shadow 18:42:04 22° 136° (SE) 1,636 4.2 -17.0°
Maximum altitude 18:45:10 52° 69° (ENE) 957 3.1 -17.5°
Drops below altitude 10° 18:50:07 10° 354° (N) 2,324 5.7 -18.3°
Sets 18:52:29 0° 350° (N) 3,254 6.6 -18.7°
